Flag for Sweden Weather past 2 weeks in Eskilstuna, Sweden

Now
75 °F

Mild.


Feels Like: 78 °F
Forecast: 61 / 83 °F
Wind: 2 mph from North

Location: Vasteras / Hasslo

Current Time: Jul 23, 2014 at 10:51:55 AM

Latest Report: Jul 23, 2014 at 9:50 AM


Visibility: N/A

Pressure: 30.30 "Hg

Humidity: 54%

Dew point: 57 °F

Location of EskilstunaLocation

Historic Weather in Eskilstuna — Graph

°F

Eskilstuna temperature yesterday

Maximum temperature yesterday: 82 °F (at 2:20 PM)
Minimum temperature yesterday: 55 °F (at 4:50 AM)
Average temperature yesterday: 71 °F

Past Weeks' High & Low Weather Summary

 TemperatureHumidityPressure
High82 °F (Jul 8, 12:50 PM)100% (Jul 15, 4:20 AM)30.30 "Hg (Jul 15, 4:20 AM)
Low45 °F (Jul 12, 2:50 AM)39% (Jul 9, 4:50 PM)29.68 "Hg (Jul 13, 8:20 PM)
Average67 °F73%30.04 "Hg
* Reported Jul 8 7:20 AM — Jul 23 7:50 AM, Eskilstuna, Weather by CustomWeather, © 2014

Note: Actual official high and low records may vary slightly from our data, if they occured in-between our weather recording intervals... More about our weather records

Advertising

Eskilstuna weather history for previous 24 hours

 ConditionsComfort  
Time TempWeatherWind HumidityBarometerVisibility
7:50 AM
Jul 23
68 °FSunny.No wind73%30.30 "Hg10 mi
7:20 AM64 °FSunny.3 mph78%30.30 "Hg10 mi
6:50 AM61 °FSunny.No wind83%30.30 "Hg10 mi
6:20 AM57 °FSunny.3 mph88%30.30 "Hg10 mi
5:50 AM54 °FSunny.3 mph94%30.30 "Hg10 mi
5:20 AM54 °FCool.5 mph88%30.30 "HgN/A
4:50 AM52 °FCool.5 mph94%30.30 "HgN/A
4:20 AM52 °FCool.5 mph94%30.30 "HgN/A
3:50 AM52 °FCool.2 mph94%30.30 "HgN/A
3:20 AM52 °FCool.2 mph94%30.30 "HgN/A
2:50 AM54 °FCool.No wind94%30.30 "HgN/A
1:50 AM54 °FCool.3 mph94%30.30 "HgN/A
6:50 PM
Jul 22
81 °FPassing clouds.5 mph48%30.24 "HgN/A
6:20 PM81 °FSunny.2 mph48%30.24 "Hg10 mi
5:50 PM79 °FSunny.5 mph51%30.24 "Hg10 mi
5:20 PM82 °FPassing clouds.3 mph42%30.24 "HgN/A
4:50 PM81 °FSunny.2 mph51%30.24 "Hg10 mi
4:20 PM79 °FPassing clouds.5 mph48%30.24 "HgN/A
3:50 PM81 °FSunny.2 mph45%30.24 "Hg10 mi
3:20 PM81 °FPassing clouds.5 mph51%30.24 "HgN/A
2:50 PM79 °FPassing clouds.6 mph54%30.24 "HgN/A
2:20 PM82 °FPassing clouds.6 mph48%30.24 "HgN/A
1:50 PM81 °FPassing clouds.7 mph51%30.24 "HgN/A
1:20 PM77 °FPassing clouds.3 mph54%30.24 "HgN/A
12:50 PM81 °FSunny.3 mph45%30.27 "Hg10 mi
12:20 PM81 °FPassing clouds.5 mph45%30.27 "HgN/A
11:50 AM79 °FPassing clouds.5 mph48%30.27 "HgN/A
11:20 AM79 °FPassing clouds.5 mph54%30.27 "HgN/A
10:50 AM77 °FPassing clouds.5 mph61%30.27 "HgN/A
10:20 AM77 °FSunny.2 mph61%30.24 "Hg10 mi
Weather by CustomWeather, © 2014

See weather overviewHow to use our weather pages